OPTUS D3

Last updated on Tue Sep 22 2026 00:03:11 GMT+0000 (Coordinated Universal Time)

1 35756U 09044B 26264.51686441 -.00000150 00000+0 00000+0 0 9993 2 35756 0.8034 267.9135 0004235 270.9314 163.7871 1.00272587 62537
UTC large
Height (km)
Speed (km/s)
/
Latitude / Longitude
Inclination (degrees)
Orbital Period (minutes)
Azimuth
Elevation
Range (km)
Doppler Factor

Next 0 passes for location: London (51.5072 / 0.1276)

No passes found over London.
OPTUS D3